This is the latest recevied weather packets stored in our database for station/object VE6KEE-13. If no packets are shown the sender has not sent any weather packets the latest 10 day(s).
| Time | Temp. | Humidity | Pressure | Rain* | Wind** | Luminosity | Snow |
|---|---|---|---|---|---|---|---|
| 1778022367 | 14.44° C | 19% | 1021.4 hPa | 0 mm | - | - | - |
| 1778021467 | 15° C | 19% | 1021.4 hPa | 0 mm | - | - | - |
| 1778020567 | 15° C | 19% | 1021.6 hPa | 0 mm | - | - | - |
| 1778019661 | 15.56° C | 19% | 1021.5 hPa | 0 mm | - | - | - |
| 1778018766 | 15.56° C | 19% | 1021.6 hPa | 0 mm | - | - | - |
| 1778017861 | 15.56° C | 19% | 1021.7 hPa | 0 mm | - | - | - |
| 1778016961 | 16.11° C | 18% | 1021.8 hPa | 0 mm | - | - | - |
| 1778016061 | 16.67° C | 18% | 1021.9 hPa | 0 mm | - | - | - |
| 1778015161 | 17.22° C | 18% | 1021.8 hPa | 0 mm | - | - | - |
| 1778014261 | 17.22° C | 18% | 1022 hPa | 0 mm | - | - | - |
| 1778013361 | 16.67° C | 19% | 1022.1 hPa | 0 mm | - | - | - |
| 1778012456 | 16.11° C | 20% | 1022.2 hPa | 0 mm | - | - | - |
| 1778011555 | 15.56° C | 20% | 1022.2 hPa | 0 mm | - | - | - |
| 1778010655 | 15.56° C | 21% | 1022.4 hPa | 0 mm | - | - | - |
| 1778009755 | 15° C | 22% | 1022.4 hPa | 0 mm | - | - | - |
| 1778008855 | 14.44° C | 22% | 1022.4 hPa | 0 mm | - | - | - |
| 1778007960 | 15° C | 21% | 1022.4 hPa | 0 mm | - | - | - |
| 1778007055 | 15° C | 22% | 1022.3 hPa | 0 mm | - | - | - |
| 1778006150 | 15° C | 22% | 1022.5 hPa | 0 mm | - | - | - |
| 1778005250 | 15° C | 22% | 1022.7 hPa | 0 mm | - | - | - |
| 1778004350 | 15° C | 22% | 1022.7 hPa | 0 mm | - | - | - |
| 1778003450 | 15° C | 23% | 1022.6 hPa | 0 mm | - | - | - |
| 1778002555 | 15.56° C | 23% | 1022.5 hPa | 0 mm | - | - | - |
| 1778001649 | 15.56° C | 23% | 1022.5 hPa | 0 mm | - | - | - |
| 1778000749 | 15.56° C | 23% | 1022.6 hPa | 0 mm | - | - | - |
* Rain since midnight (hover to see other rain measurements)
** Current wind speed in m/s (hover to see current wind gust speed)